Date String (YYYY-MM-DD hh:mm:ss) UTC,Instrument flags,Ambient pressure (hPa),Sample flow (lpm),Bypass flow (lpm),Sample temperature (°C),Ambient temperature (°C),ASC tube jacket temperature (°C),LED temperature (°C),Box temperature (°C),Sample RH (%),Span deviation,Mass concentration (μg/m³),Mass concentration (μg/m³),Mass concentration (μg/m³)
DateTimeUTC,F1_M11,P_M11,Q1_M11,Q2_M11,T1_M11,T2_M11,T3_M11,T4_M11,T5_M11,U1_M11,ZSPAN_M11,X2_M11,X0_M11,X1_M11
2022-07-05 23:00:00,,0827.8,5.00,0.00,29.2,27.8,00.0,38.0,31.2,29.0,0000.0,0002.54,0004.25,0001.86
2022-07-05 23:01:00,,0827.8,5.01,0.00,29.3,28.0,00.0,38.0,31.2,29.0,0000.0,0002.60,0004.35,0001.89
2022-07-05 23:02:00,,0827.7,5.00,0.00,29.3,28.1,00.0,38.0,31.3,29.5,0000.0,0002.67,0004.55,0001.89
2022-07-05 23:03:00,,0827.8,5.00,0.00,29.3,28.2,00.0,38.0,31.3,29.7,0000.0,0002.66,0004.39,0001.90
2022-07-05 23:04:00,,0827.7,5.00,0.00,29.4,28.3,00.0,38.1,31.4,29.4,0000.0,0002.67,0004.34,0001.91
2022-07-05 23:05:00,,0827.7,4.99,0.00,29.4,28.4,00.0,38.1,31.4,29.6,0000.0,0002.70,0004.50,0001.92
2022-07-05 23:06:00,,0827.7,4.99,0.00,29.4,27.9,00.0,38.0,31.4,29.1,0000.0,0002.69,0004.61,0001.92
2022-07-05 23:07:00,,0827.7,4.99,0.00,29.4,27.1,00.0,38.0,31.3,29.4,0000.0,0002.69,0004.63,0001.92
2022-07-05 23:08:00,,0827.6,5.01,0.00,29.4,26.8,00.0,38.0,31.2,29.8,0000.0,0002.71,0004.62,0001.92
2022-07-05 23:09:00,,0827.6,4.99,0.00,29.3,26.8,00.0,38.0,31.0,30.3,0000.0,0002.72,0005.19,0001.93
2022-07-05 23:10:00,,0827.6,4.99,0.00,29.2,26.9,00.0,38.0,31.0,30.1,0000.0,0002.70,0006.31,0001.93
2022-07-05 23:11:00,,0827.5,5.00,0.00,29.2,27.1,00.0,37.9,31.0,29.9,0000.0,0002.69,0006.31,0001.93
2022-07-05 23:12:00,,0827.5,5.01,0.00,29.2,27.3,00.0,37.9,31.0,29.7,0000.0,0002.68,0007.25,0001.92
2022-07-05 23:13:00,,0827.6,4.99,0.00,29.2,27.5,00.0,37.9,31.1,29.8,0000.0,0002.70,0007.31,0001.91
2022-07-05 23:14:00,,0827.5,5.00,0.00,29.2,27.6,00.0,38.0,31.1,29.2,0000.0,0002.76,0007.41,0001.91
2022-07-05 23:15:00,,0827.5,4.99,0.00,29.2,27.8,00.0,38.0,31.1,28.7,0000.0,0002.80,0007.46,0001.91
2022-07-05 23:16:00,,0827.5,5.01,0.00,29.2,27.9,00.0,38.0,31.2,28.6,0000.0,0002.79,0007.41,0001.90
2022-07-05 23:17:00,,0827.5,5.00,0.00,29.3,28.1,00.0,38.0,31.3,28.8,0000.0,0002.79,0007.36,0001.91
2022-07-05 23:18:00,,0827.6,4.99,0.00,29.3,28.2,00.0,38.0,31.3,28.9,0000.0,0002.76,0007.26,0001.91
2022-07-05 23:19:00,,0827.5,5.01,0.00,29.3,28.3,00.0,38.0,31.3,28.9,0000.0,0002.75,0007.30,0001.90
2022-07-05 23:20:00,,0827.5,5.01,0.00,29.4,28.4,00.0,38.1,31.4,28.7,0000.0,0002.72,0007.73,0001.89
2022-07-05 23:21:00,,0827.4,5.00,0.00,29.4,28.3,00.0,38.1,31.4,28.0,0000.0,0002.73,0007.00,0001.89
2022-07-05 23:22:00,,0827.4,5.01,0.00,29.4,27.7,00.0,38.0,31.3,27.5,0000.0,0002.74,0007.01,0001.89
2022-07-05 23:23:00,,0827.4,5.00,0.00,29.4,27.4,00.0,38.0,31.3,27.1,0000.0,0002.71,0006.27,0001.89
2022-07-05 23:24:00,,0827.3,4.99,0.00,29.3,27.4,00.0,38.0,31.2,27.1,0000.0,0002.67,0007.30,0001.90
2022-07-05 23:25:00,,0827.3,5.01,0.00,29.3,27.5,00.0,38.0,31.2,27.5,0000.0,0002.58,0007.23,0001.89
2022-07-05 23:26:00,,0827.2,5.01,0.00,29.3,27.6,00.0,38.0,31.2,27.8,0000.0,0002.58,0007.28,0001.89
2022-07-05 23:27:00,,0827.2,5.01,0.00,29.3,27.7,00.0,38.0,31.2,27.6,0000.0,0002.65,0007.45,0001.90
2022-07-05 23:28:00,,0827.2,4.99,0.00,29.3,27.9,00.0,38.1,31.2,27.3,0000.0,0002.65,0007.47,0001.89
2022-07-05 23:29:00,,0827.3,5.00,0.00,29.3,28.0,00.0,38.1,31.3,27.7,0000.0,0002.65,0007.61,0001.88
2022-07-05 23:30:00,,0827.2,5.00,0.00,29.4,28.1,00.0,38.1,31.3,27.6,0000.0,0002.68,0007.76,0001.89
2022-07-05 23:31:00,,0827.3,5.00,0.00,29.4,28.3,00.0,38.1,31.4,27.5,0000.0,0002.75,0007.60,0001.90
2022-07-05 23:32:00,,0827.2,5.00,0.00,29.4,28.4,00.0,38.1,31.4,27.5,0000.0,0002.74,0007.58,0001.90
2022-07-05 23:33:00,,0827.3,5.00,0.00,29.5,28.1,00.0,38.1,31.4,27.1,0000.0,0002.76,0007.62,0001.90
2022-07-05 23:34:00,,0827.3,4.99,0.00,29.5,27.3,00.0,38.0,31.3,27.5,0000.0,0002.84,0007.58,0001.90
2022-07-05 23:35:00,,0827.3,5.01,0.00,29.4,26.9,00.0,38.0,31.2,27.4,0000.0,0002.87,0006.63,0001.88
2022-07-05 23:36:00,,0827.2,5.00,0.00,29.3,26.8,00.0,38.0,31.1,27.4,0000.0,0002.88,0006.61,0001.88
2022-07-05 23:37:00,,0827.2,5.01,0.00,29.3,26.9,00.0,38.0,31.0,27.4,0000.0,0002.83,0007.68,0001.86
2022-07-05 23:38:00,,0827.3,5.01,0.00,29.2,27.1,00.0,38.0,31.0,27.5,0000.0,0002.71,0007.80,0001.85
2022-07-05 23:39:00,,0827.2,4.99,0.00,29.2,27.3,00.0,38.0,31.1,27.7,0000.0,0002.70,0007.74,0001.85
2022-07-05 23:40:00,,0827.2,4.99,0.00,29.2,27.5,00.0,38.0,31.1,27.4,0000.0,0002.72,0007.68,0001.85
2022-07-05 23:41:00,,0827.2,5.01,0.00,29.2,27.7,00.0,38.0,31.1,27.4,0000.0,0002.69,0007.51,0001.83
2022-07-05 23:42:00,,0827.1,5.00,0.00,29.3,27.8,00.0,38.0,31.2,27.5,0000.0,0002.67,0006.81,0001.82
2022-07-05 23:43:00,,0827.3,5.00,0.00,29.3,28.0,00.0,38.0,31.2,27.6,0000.0,0002.66,0007.07,0001.80
2022-07-05 23:44:00,,0827.2,5.00,0.00,29.3,28.1,00.0,38.0,31.3,27.9,0000.0,0002.64,0007.09,0001.79
2022-07-05 23:45:00,,0827.0,5.01,0.00,29.3,28.2,00.0,38.1,31.3,27.8,0000.0,0002.59,0006.96,0001.78
2022-07-05 23:46:00,,0826.9,5.00,0.00,29.4,28.3,00.0,38.1,31.4,27.6,0000.0,0002.57,0006.94,0001.78
2022-07-05 23:47:00,,0826.8,4.98,0.00,29.4,28.4,00.0,38.1,31.4,27.6,0000.0,0002.56,0007.00,0001.77
2022-07-05 23:48:00,,0826.7,4.99,0.00,29.5,28.4,00.0,38.1,31.4,27.1,0000.0,0002.54,0005.22,0001.77
2022-07-05 23:49:00,,0826.7,5.00,0.00,29.5,27.8,00.0,38.1,31.4,26.9,0000.0,0002.55,0005.44,0001.76
2022-07-05 23:50:00,,0826.7,5.01,0.00,29.4,27.1,00.0,38.0,31.3,26.4,0000.0,0002.54,0005.76,0001.74
2022-07-05 23:51:00,,0826.5,5.00,0.00,29.4,26.9,00.0,38.0,31.2,26.3,0000.0,0002.47,0005.54,0001.71
2022-07-05 23:52:00,,0826.5,4.98,0.00,29.3,26.9,00.0,38.0,31.1,26.3,0000.0,0002.42,0005.49,0001.68
2022-07-05 23:53:00,,0826.5,5.00,0.00,29.3,27.1,00.0,38.0,31.0,26.5,0000.0,0002.33,0005.23,0001.64
2022-07-05 23:54:00,,0826.5,5.01,0.00,29.2,27.2,00.0,38.0,31.1,26.6,0000.0,0002.28,0004.84,0001.61
2022-07-05 23:55:00,,0826.5,5.00,0.00,29.2,27.4,00.0,38.0,31.1,26.2,0000.0,0002.25,0005.02,0001.59
2022-07-05 23:56:00,,0826.5,5.01,0.00,29.2,27.6,00.0,38.0,31.1,26.3,0000.0,0002.19,0005.01,0001.57
2022-07-05 23:57:00,,0826.5,5.00,0.00,29.3,27.8,00.0,38.0,31.2,26.3,0000.0,0002.14,0004.93,0001.54
2022-07-05 23:58:00,,0826.5,5.00,0.00,29.3,27.9,00.0,38.0,31.2,26.5,0000.0,0002.13,0004.80,0001.52
2022-07-05 23:59:00,,0826.4,5.00,0.00,29.3,28.0,00.0,38.0,31.2,26.4,0000.0,0002.16,0005.08,0001.50
